Atlantic Bird 7

operational
NORAD ID: 37816 Int'l Des: 2011-051 Owner: EUTSA Country: F
HEOCIRCULARGSOGEO

Über Atlantic Bird 7

Beschreibung wird geladen...

Live-Position

3D-Globus wird geladen...

Nächste Überflüge

Höhenverlauf

Altitude vs Time

uPlot chart will show altitude changes over time

Zweizeiliger Elementsatz

1 37816U 11051A 26061.08749145 -.00000078 00000-0 00000+0 0 9991
2 37816 0.0679 2.5652 0001519 243.2735 298.2003 1.00271432 52800
Epoch: 2. März 2026 • Age: 30 hours

Aktueller Status

Höhe 35779.8 km
Geschwindigkeit 3.08 km/s
Subsatellitenpunkt -0.02°S, 7.31°W
Startdatum 24. Sept. 2011
Alter 14.4 years
Typ other

Technische Details

Klassifizierung Payload
Masse 4600.00 kg
Trockenmasse 2500.00 kg
Gesamtmasse 4600.00 kg
Länge 6.30 m
Durchmesser 2.70 m
Spannweite 39.00 m
Form Box + 2 Pan
Hersteller ASTT
Bus-Typ Eurostar 3000
Phasenstatus Renamed
Besitzer/Staat EUTSA/F

Große Konstellationen

Loading constellations...